Home   Weather   Zittau   Past weeks

Flag for Germany Past Weather in Zittau, Saxony, Germany — Yesterday and Last 2 Weeks

Now
42 °F

Quite cool.


Feels Like: 42 °F
Forecast: 34 / 41 °F
Wind: 2 mph from Southeast

Location: Liberec

Current Time: Dec 11, 2016 at 3:19:44 am

Latest Report: Dec 11, 2016 at 2:00 am


Visibility: 9 mi

Pressure: 30.08 "Hg

Humidity: 83%

Dew Point: 37 °F

Location of ZittauLocation

Past Weather in Zittau — Graph

°F

Zittau Temperature Yesterday

Maximum temperature yesterday: 47 °F (at 1:00 pm)
Minimum temperature yesterday: 37 °F (at 8:00 am)
Average temperature yesterday: 42 °F

High & Low Weather Summary for the Past Weeks

 TemperatureHumidityPressure
High47 °F (Dec 10, 1:00 pm)99% (Nov 26, 4:00 am)30.65 "Hg (Nov 26, 4:00 am)
Low17 °F (Dec 4, 6:00 am)41% (Nov 30, 12:00 pm)29.75 "Hg (Dec 2, 4:00 am)
Average31 °F84%30.30 "Hg
* Reported Nov 26 2:00 am — Dec 11 2:00 am, Zittau, Weather by CustomWeather, © 2016

Note: Actual official high and low records may vary slightly from our data, if they occured in-between our weather recording intervals... More about our weather records

Advertising

Zittau Weather History for the Previous 24 Hours

Scroll right to see more
 ConditionsComfort  
Time TempWeatherWind HumidityBarometerVisibility
2:00 am
Sun, Dec 11
42 °FQuite cool.2 mph83%30.08 "Hg9 mi
1:00 am42 °FQuite cool.2 mph84%30.09 "Hg8 mi
12:00 am45 °FCool.1 mph76%30.11 "Hg12 mi
11:00 pm
Sat, Dec 10
45 °FQuite cool.2 mph74%30.13 "Hg12 mi
10:00 pm46 °FCool.3 mph74%30.13 "Hg12 mi
9:00 pm46 °FOvercast.5 mph76%30.14 "Hg14 mi
8:00 pm46 °FOvercast.5 mph78%30.15 "Hg14 mi
7:00 pm44 °FOvercast.1 mph85%30.16 "Hg11 mi
6:00 pm42 °FFog.1 mph90%30.17 "Hg5 mi
5:00 pm42 °FQuite cool.2 mph92%30.17 "Hg6 mi
4:00 pm43 °FPassing clouds.1 mph88%30.18 "Hg11 mi
3:00 pm44 °FOvercast.3 mph84%30.17 "Hg11 mi
2:00 pm46 °FPartly sunny.2 mph81%30.18 "Hg11 mi
1:00 pm47 °FPartly sunny.2 mph78%30.18 "Hg11 mi
12:00 pm46 °FPartly sunny.2 mph80%30.20 "Hg10 mi
11:00 am44 °FPartly sunny.2 mph82%30.23 "Hg7 mi
10:00 am42 °FPartly sunny.2 mph90%30.24 "Hg6 mi
9:00 am39 °FPartly sunny.2 mph97%30.26 "Hg7 mi
8:00 am37 °FPartly sunny.2 mph97%30.26 "Hg6 mi
7:00 am38 °FFog.2 mph96%30.25 "Hg6 mi
6:00 am39 °FFog.1 mph96%30.25 "Hg2 mi
5:00 am41 °FFog.2 mph94%30.25 "Hg4 mi
4:00 am41 °FFog.2 mph96%30.27 "Hg5 mi
3:00 am40 °FQuite cool.2 mph95%30.29 "Hg2 mi
Weather by CustomWeather, © 2016

See weather overviewHow to use our weather pages